Location: ??????
(42.0089°N, 44.3281°E)
Time: 18:33:25
(UTC+00:00)

Cosmos 2263 Rocket - Pass Details

Date: 24 October 2021
Orbit: 825 x 847 km, 71.0° (Epoch: 02 December)

Event Time Altitude Azimuth Distance (km) Brightness Sun altitude
Rises 15:08:49 0° 331° (NNW) 3,370 5.7 -12.0°
Reaches altitude 10° 15:11:18 10° 327° (NNW) 2,433 5.0 -12.5°
Maximum altitude 15:16:42 53° 252° (WSW) 1,003 3.0 -13.5°
Drops below altitude 10° 15:22:05 10° 176° (S) 2,421 4.6 -14.5°
Sets 15:24:33 0° 172° (S) 3,353 5.3 -14.9°
